Other Surface Observations
Issued by NWS Upton, NY

Home | Current Version | Previous Version | Text Only | Print | Product List | Glossary On
Versions: 1 2 3 4 5 6 7 8 9 10 11 12 13 14 15 16 17 18 19 20 21 22 23 24 25 26 27 28 29 30 31 32 33 34 35 36 37 38 39 40 41 42 43 44 45 46 47 48 49 50
000
SXUS51 KOKX 240457
OSOOKX
New York City Metropolitan Area Weather Roundup
National Weather Service New York NY
1200 AM EST SAT FEB 24 2018

CITY           SKY/WX    TMP DP  RH WIND       PRES   REMARKS
Central Park   CLOUDY    43  39  87 W5G18     30.18F
LaGuardia Arpt MOCLDY    44  40  85 W12       30.16F
Kennedy Intl   CLOUDY    40  40 100 SW9       30.18F WCI  34
Newark Liberty CLOUDY    41  40  96 SW10      30.18F FOG
Teterboro Arpt CLOUDY    42  40  92 SW6       30.17F FOG
Bronx Bot Gard   N/A     41  39  93 SW13      30.17S
Bronx Lehman C   N/A     41  39  93 W5          N/A
Queens College   N/A     41  39  93 W7          N/A
Breezy Point     N/A     39 N/A N/A W8          N/A  WCI  34
Brooklyn Coll    N/A     41  39  93 SW8         N/A
Staten Island    N/A     41  39  93 SW7         N/A

>>>>>>>>>>>>>>>>>>>>>>>>>>>>>>>>> KEY <<<<<<<<<<<<<<<<<<<<<<<<<<<<<<<
> SKY/WX - Sky Condition/Present    : R : WCI - Wind Chill Index    <
>          Weather                  : E : VSB - Visibility in Miles <
> TMP    - Temperature in Deg F     : M : HX  - Heat Index          <
> DP     - Dew Point Temperature    : A : TC  - Temperature in      <
> RH     - Relative Humidity        : R :       Celsius             <
> WIND   - Direction/Speed (mph)    : K : VRB - Variable Wind Dir   <
> PRES   - Pressure (in Hg)         : S :                           <
>>>>>>>>>>>>>>>>>>>>>>>>>>>>>>>>> KEY <<<<<<<<<<<<<<<<<<<<<<<<<<<<<<<



USA.gov is the U.S. government's official web portal to all federal, state and local government web resources and services.